Mattoon, IL

6:51 AM CDT on May 29, 2017 (GMT -0500)
Coles County Memorial

Weather History for KMTO - December, 2012

Change the Weather History Date:

Wednesday, December 12, 2012

  Actual Average Record
Temperature  
Mean Temperature 35 °F 32 °F  
Max Temperature 44 °F 39 °F 67 °F (2015)
Min Temperature 26 °F 25 °F -8 °F (1962)
Degree Days  
Heating Degree Days 30 33  
Month to date heating degree days 239 372  
Since 1 July heating degree days 1404 1431  
Cooling Degree Days 0 0  
Month to date cooling degree days 0 0  
Year to date cooling degree days 1382 1057  
Moisture  
Dew Point 25 °F    
Average Humidity 66    
Maximum Humidity 82    
Minimum Humidity 49    
Precipitation  
Precipitation 0.00 in 0.08 in 1.22 in (1972)
Month to date precipitation 1.66 1.04  
Year to date precipitation 32.30 36.32  
Sea Level Pressure  
Sea Level Pressure 30.32 in    
Wind  
Wind Speed 8 mph (South)    
Max Wind Speed 14 mph    
Max Gust Speed 16 mph    
Visibility 10 miles    
Events      
T = Trace of Precipitation, MM = Missing Value Source: NWS Daily Summary

Daily Weather History Graph

Daily Weather History Graph

Search for Another Location

Airport or City:

Trip Planner

Search our weather history database for the weather conditions in past years. The results will help you decide how hot, cold, wet, or windy it might be!

Date:

Astronomy

Dec. 12, 2012 Rise Set
Actual Time 7:04 AM CST 4:29 PM CST
Civil Twilight 6:34 AM CST 4:59 PM CST
Nautical Twilight 6:00 AM CST 5:33 PM CST
Astronomical Twilight 5:27 AM CST 6:06 PM CST
Moon 6:08 AM CST (12/12) 4:06 PM CST (12/12)
Length of Visible Light 10h 25m
Length of Day
9h 25m
Waning Crescent, 1% of the Moon is Illuminated
Dec 12
Waning Crescent
Dec 13
New
Dec 19
First Quarter
Dec 28
Full
Jan 4
Last Quarter

Hourly Weather History & Observations

Time (CST) Temp. Windchill Dew Point Humidity Pressure Visibility Wind Dir Wind Speed Gust Speed Precip Events Conditions
12:53 AM 28.9 °F 23.9 °F 21.9 °F 75% 30.24 in 10.0 mi South 4.6 mph - N/A   Clear
1:53 AM 28.9 °F 22.8 °F 21.0 °F 72% 30.25 in 10.0 mi South 5.8 mph - N/A   Clear
2:53 AM 28.0 °F 20.8 °F 21.9 °F 78% 30.27 in 10.0 mi SSW 6.9 mph - N/A   Clear
3:53 AM 28.0 °F 20.8 °F 21.9 °F 78% 30.27 in 10.0 mi SSW 6.9 mph - N/A   Clear
4:53 AM 28.0 °F 20.8 °F 23.0 °F 81% 30.29 in 10.0 mi South 6.9 mph - N/A   Clear
5:53 AM 26.1 °F 19.4 °F 21.9 °F 84% 30.30 in 10.0 mi South 5.8 mph - N/A   Clear
6:53 AM 27.0 °F 19.5 °F 21.9 °F 81% 30.32 in 10.0 mi South 6.9 mph - N/A   Clear
7:53 AM 28.0 °F 18.6 °F 23.0 °F 81% 30.34 in 9.0 mi South 10.4 mph - N/A   Clear
8:53 AM 30.0 °F 21.1 °F 25.0 °F 82% 30.35 in 10.0 mi South 10.4 mph - N/A   Clear
9:53 AM 34.0 °F 28.8 °F 28.0 °F 79% 30.37 in 10.0 mi South 5.8 mph - N/A   Clear
10:53 AM 39.0 °F 32.8 °F 28.0 °F 65% 30.36 in 10.0 mi SSE 9.2 mph - N/A   Clear
11:53 AM 39.9 °F 33.4 °F 28.9 °F 65% 30.35 in 10.0 mi SSE 10.4 mph - N/A   Clear
12:53 PM 43.0 °F 38.2 °F 27.0 °F 53% 30.33 in 10.0 mi South 8.1 mph - N/A   Clear
1:53 PM 44.1 °F 39.0 °F 27.0 °F 51% 30.31 in 10.0 mi SSE 9.2 mph - N/A   Clear
2:53 PM 44.1 °F 39.0 °F 26.1 °F 49% 30.31 in 10.0 mi South 9.2 mph - N/A   Clear
3:53 PM 42.1 °F 37.7 °F 26.1 °F 53% 30.31 in 10.0 mi South 6.9 mph - N/A   Clear
4:53 PM 39.9 °F 35.8 °F 28.0 °F 63% 30.31 in 10.0 mi South 5.8 mph - N/A   Clear
5:53 PM 37.0 °F 33.3 °F 26.1 °F 65% 30.33 in 10.0 mi SSE 4.6 mph - N/A   Clear
6:53 PM 37.0 °F 31.6 °F 27.0 °F 67% 30.34 in 10.0 mi South 6.9 mph - N/A   Clear
7:53 PM 35.1 °F 29.3 °F 27.0 °F 72% 30.35 in 10.0 mi SSE 6.9 mph - N/A   Clear
8:53 PM 34.0 °F 27.2 °F 27.0 °F 75% 30.34 in 10.0 mi SSE 8.1 mph - N/A   Clear
9:53 PM 35.1 °F 27.9 °F 27.0 °F 72% 30.34 in 10.0 mi South 9.2 mph - N/A   Clear
10:53 PM 33.1 °F 26.1 °F 27.0 °F 78% 30.35 in 10.0 mi SSE 8.1 mph - N/A   Clear
11:53 PM 33.1 °F 26.1 °F 26.1 °F 75% 30.33 in 10.0 mi South 8.1 mph - N/A   Clear